Home   Weather   Cape Canaveral   Past weeks
Flag for USA

Past Weather in Cape Canaveral, Florida, USA — Yesterday and Last 2 Weeks

Now
84 °F

Sunny.


Feels Like: 82 °F
Forecast: 88 / 78 °F
Wind: 7 mph from South

Location: Cape Kennedy

Current Time: Jul 17, 2019 at 9:07:01 pm

Latest Report: Jul 17, 2019 at 7:56 pm


Visibility: 10 mi

Pressure: 30.10 "Hg

Humidity: 30%

Dew Point: 49 °F

Location of Cape CanaveralLocation

Past Weather in Cape Canaveral — Graph

°F

Cape Canaveral Temperature Yesterday

Maximum temperature yesterday: 91 °F (at 3:56 pm)
Minimum temperature yesterday: 75 °F (at 6:56 am)
Average temperature yesterday: 83 °F

High & Low Weather Summary for the Past Weeks

 TemperatureHumidityPressure
High91 °F (Jul 14, 3:56 pm)70% (Jul 4, 11:29 am)30.17 "Hg (Jul 4, 11:29 am)
Low71 °F (Jul 13, 2:56 am)21% (Jul 14, 3:56 pm)29.89 "Hg (Jul 8, 7:56 pm)
Average82 °F39%30.04 "Hg
* Reported Jul 2 7:56 pm — Jul 17 7:56 pm, Cape Canaveral. Weather by CustomWeather, © 2019

Note: Actual official high and low records may vary slightly from our data, if they occured in-between our weather recording intervals... More about our weather records

Advertising

Cape Canaveral Weather History for the Previous 24 Hours

Scroll right to see more
 ConditionsComfort  
Time TempWeatherWind HumidityBarometerVisibility
7:56 pm
Wed, Jul 17
84 °FSunny.7 mph30%30.10 "Hg10 mi
6:56 pm86 °FSunny.8 mph32%30.08 "Hg10 mi
5:56 pm87 °FSunny.10 mph32%30.08 "Hg10 mi
4:56 pm89 °FSunny.12 mph30%30.09 "Hg10 mi
3:56 pm89 °FSunny.15 mph30%30.10 "Hg10 mi
2:56 pm91 °FPassing clouds.12 mph25%30.11 "Hg10 mi
1:56 pm90 °FBroken clouds.14 mph28%30.14 "Hg10 mi
12:56 pm91 °FBroken clouds.7 mph25%30.14 "Hg10 mi
11:56 am89 °FSunny.10 mph29%30.15 "Hg10 mi
10:56 am88 °FSunny.9 mph31%30.14 "Hg10 mi
9:56 am87 °FSunny.9 mph33%30.14 "Hg10 mi
8:56 am85 °FSunny.6 mph36%30.13 "Hg10 mi
7:56 am81 °FSunny.No wind40%30.13 "Hg10 mi
6:56 am75 °FSunny.No wind49%30.11 "Hg10 mi
5:56 am75 °FClear.No wind47%30.10 "Hg10 mi
4:56 am78 °FClear.No wind45%30.09 "Hg10 mi
3:56 am79 °FClear.3 mph43%30.09 "Hg10 mi
2:56 am80 °FClear.6 mph42%30.10 "Hg10 mi
1:56 am81 °FClear.7 mph41%30.11 "Hg10 mi
12:56 am81 °FClear.6 mph41%30.12 "Hg10 mi
11:56 pm
Tue, Jul 16
82 °FClear.8 mph41%30.13 "Hg10 mi
10:56 pm80 °FClear.7 mph43%30.12 "Hg10 mi
9:56 pm80 °FClear.6 mph42%30.13 "Hg10 mi
Weather by CustomWeather, © 2019

See weather overview